Location: Finnegan
(51.1333°N, 112.0833°W)
Time: 20:31:38
(UTC+00:00)

Envisat - Pass Details

Date: 07 December 2021
Orbit: 764 x 766 km, 98.2° (Epoch: 26 January)

Event Time Altitude Azimuth Distance (km) Brightness Sun altitude
Rises 23:56:06 0° 181° (S) 3,221 6.7 -5.3°
Reaches altitude 10° 23:58:29 10° 186° (S) 2,299 6.0 -5.6°
Maximum altitude 00:03:22 48° 261° (W) 997 4.2 -6.3°
Drops below altitude 10° 00:08:19 10° 336° (NNW) 2,317 5.5 -7.0°
Sets 00:10:43 0° 342° (NNW) 3,248 6.2 -7.3°
